This is the latest recevied weather packets stored in our database for station/object DB2AG-13. If no packets are shown the sender has not sent any weather packets the latest 10 day(s).
| Time | Temp. | Humidity | Pressure | Rain* | Wind** | Luminosity | Snow |
|---|---|---|---|---|---|---|---|
| 1787751247 | 17.22° C | 65% | 1021.2 hPa | - | - | - | - |
| 1787750710 | 17.22° C | 65% | 1021.4 hPa | - | - | - | - |
| 1787750169 | 17.22° C | 65% | 1021.4 hPa | - | - | - | - |
| 1787749631 | 17.22° C | 66% | 1021.4 hPa | - | - | - | - |
| 1787749090 | 17.22° C | 66% | 1021.5 hPa | - | - | - | - |
| 1787748552 | 17.22° C | 65% | 1021.5 hPa | - | - | - | - |
| 1787748009 | 17.22° C | 66% | 1021.5 hPa | - | - | - | - |
| 1787747474 | 17.22° C | 65% | 1021.4 hPa | - | - | - | - |
| 1787746937 | 17.22° C | 65% | 1021.4 hPa | - | - | - | - |
| 1787746398 | 17.78° C | 65% | 1021.4 hPa | - | - | - | - |
| 1787745322 | 17.78° C | 64% | 1021.3 hPa | - | - | - | - |
| 1787744785 | 17.78° C | 64% | 1021.4 hPa | - | - | - | - |
| 1787744242 | 17.22° C | 65% | 1021.3 hPa | - | - | - | - |
| 1787743697 | 17.22° C | 64% | 1021.2 hPa | - | - | - | - |
| 1787743159 | 17.22° C | 64% | 1021.3 hPa | - | - | - | - |
| 1787742618 | 17.78° C | 64% | 1021.3 hPa | - | - | - | - |
| 1787742076 | 17.78° C | 64% | 1021.3 hPa | - | - | - | - |
| 1787741531 | 17.78° C | 65% | 1021.2 hPa | - | - | - | - |
| 1787740987 | 17.22° C | 65% | 1021.2 hPa | - | - | - | - |
| 1787740447 | 17.22° C | 66% | 1021.1 hPa | - | - | - | - |
| 1787738819 | 16.67° C | 66% | 1021.1 hPa | - | - | - | - |
| 1787737194 | 16.11° C | 66% | 1021.2 hPa | - | - | - | - |
| 1787736654 | 15.56° C | 66% | 1021.2 hPa | - | - | - | - |
| 1787736113 | 15.56° C | 66% | 1021.2 hPa | - | - | - | - |
| 1787735572 | 16.11° C | 66% | 1021.2 hPa | - | - | - | - |
* Rain since midnight (hover to see other rain measurements)
** Current wind speed in m/s (hover to see current wind gust speed)